TimeEDT,TemperatureF,Dew PointF,Humidity,Sea Level PressureIn,VisibilityMPH,Wind Direction,Wind SpeedMPH,Gust SpeedMPH,PrecipitationIn,Events,Conditions,WindDirDegrees,DateUTC
12:53 AM,44.1,28.0,53,30.05,10.0,South,3.5,-,N/A,,Clear,190,2013-05-13 04:53:00
1:53 AM,41.0,30.0,65,30.04,10.0,South,4.6,-,N/A,,Clear,190,2013-05-13 05:53:00
2:53 AM,42.1,28.9,60,30.04,10.0,SSW,5.8,-,N/A,,Clear,200,2013-05-13 06:53:00
3:53 AM,41.0,30.9,67,30.06,10.0,SW,4.6,-,N/A,,Mostly Cloudy,230,2013-05-13 07:53:00
4:53 AM,45.0,27.0,49,30.05,10.0,Variable,5.8,-,0.01,,Clear,0,2013-05-13 08:53:00
5:53 AM,44.1,26.1,49,30.06,10.0,Variable,4.6,-,N/A,,Clear,0,2013-05-13 09:53:00
6:53 AM,44.1,27.0,51,30.08,10.0,SW,3.5,-,N/A,,Clear,230,2013-05-13 10:53:00
7:53 AM,45.0,30.9,58,30.10,10.0,WSW,5.8,-,N/A,,Clear,240,2013-05-13 11:53:00
8:53 AM,48.0,25.0,41,30.12,10.0,WNW,8.1,-,N/A,,Clear,300,2013-05-13 12:53:00
9:53 AM,50.0,27.0,41,30.12,10.0,WSW,11.5,-,N/A,,Clear,250,2013-05-13 13:53:00
10:53 AM,53.1,24.1,32,30.13,10.0,West,18.4,24.2,N/A,,Clear,280,2013-05-13 14:53:00
11:53 AM,53.1,23.0,31,30.12,10.0,WNW,8.1,16.1,N/A,,Mostly Cloudy,300,2013-05-13 15:53:00
12:53 PM,55.9,21.0,26,30.10,10.0,NW,11.5,23.0,N/A,,Scattered Clouds,310,2013-05-13 16:53:00
1:53 PM,55.9,19.9,25,30.09,10.0,WNW,15.0,23.0,N/A,,Scattered Clouds,290,2013-05-13 17:53:00
2:53 PM,55.9,21.9,27,30.09,10.0,WNW,10.4,-,N/A,,Mostly Cloudy,300,2013-05-13 18:53:00
4:53 PM,57.0,21.9,26,30.07,10.0,WNW,15.0,20.7,N/A,,Mostly Cloudy,300,2013-05-13 20:53:00
5:53 PM,55.9,21.9,27,30.08,10.0,NW,16.1,20.7,N/A,,Mostly Cloudy,310,2013-05-13 21:53:00
6:53 PM,54.0,21.0,28,30.08,10.0,WNW,10.4,18.4,N/A,,Partly Cloudy,300,2013-05-13 22:53:00
8:53 PM,48.9,24.1,38,30.12,10.0,North,3.5,-,N/A,,Partly Cloudy,360,2013-05-14 00:53:00
9:53 PM,48.0,25.0,41,30.15,10.0,Calm,Calm,-,N/A,,Clear,0,2013-05-14 01:53:00
10:53 PM,39.9,30.0,68,30.17,10.0,WSW,3.5,-,N/A,,Clear,240,2013-05-14 02:53:00
11:53 PM,37.0,30.0,76,30.19,10.0,Calm,Calm,-,N/A,,Clear,0,2013-05-14 03:53:00